Погода в Мерсрагсе

Погода в Мерсрагсе : погода сейчас, прогноз погоды и архив. Всё, что Вы хотите узнать о погоде в Мерсрагсе!

Поиск расширенной информации на нашем сайте:

Другие новости

Новости СМИ2

Главная страница сайта

Новости сайта

03.07.2017

Напоминаем, что на нашем специализированном сайте Метеоцентр.Азия вы можете получить высокодетализированные автоматические прогнозы погоды по пунктам России, СНГ и мира в авиационном формате (включающие направление и скорость ветра, видимость, явления погоды, количество и форму облачности, нижнюю и верхнюю границу облачности).


Погода в Мерсрагсе - сегодня

Время (UTC), дата Ветер
(°,м/с) 
Видим.   Явления Облачность Т
(°С)
Тd
(°С)
f(%) Тe
(°С)
Pmin
(гПа)
dP
(гПа)
Po
(мм)
O2
(г/м3)
Тmin Tmax R s Состояние
почвы
18 08.02.18 160 (Ю) 1-3  н/о    н/о 
-6.7 -8 90 -6  1021.2  765  317           
21 08.02.18 160 (Ю) 1-2  н/о    н/о 
-6 -7.4 90 -6  1021.4  0.3  765  316           
00 09.02.18 010 (С) 1-2  н/о    н/о 
-5.5 -7.2 88 -5  1021.6  0.1  766  316           
03 09.02.18 170 (Ю) 1-2  н/о    н/о 
-5.3 -6.5 91 -5  1021.7  0.1  766  315           
06 09.02.18 180 (Ю) 1-2  н/о    н/о 
-4.8 -5.2 97 -4  1021.8  766  315           
09 09.02.18 130 (ЮВ) 1-2  н/о    н/о 
-4.4 -4.9 96 -4  1022.5  0.7  766  314           
12 09.02.18 140 (ЮВ) 1-3  н/о    н/о 
-3.2 -3.8 96 -3  1022.6  766  313           
15 09.02.18 090 (В) 2-4  н/о    н/о 
-3.5 -4.4 93 -5  1022.6  -0.1  766  313           
18 09.02.18 060 (СВ) 2-2  н/о    н/о 
-4.9 -7 85 -6  1023.1  0.4  767  315           
09 22.02.18 200 (Ю) 2-3  н/о    н/о 
-7.8 -10.9 78 -9  1032  0.7  773  322           
21 23.04.18 170 (Ю) 2-4  н/о    н/о 
+9.6 +7.8 89 +10  1006.1  -2.1  754  292           
06 25.04.18 230 (ЮЗ) 3-5  н/о    н/о 
+7.5 +5.6 88 +7  1001  0.4  750  293           
18 29.04.18 330 (СЗ) 1-1  н/о    н/о 
+7.4 +4.9 84 +8  1011.5  758  297           
21 06.05.18 тихо () -1  н/о    н/о 
+11.5 +5.8 68 +12  1025.2  -0.4  768  296           
15 21.05.18 030 (СВ) 3-5  н/о    н/о 
+19 +6.6 44 +20  1026.4  -2  769  289           
15 06.06.18 330 (СЗ) 5-9  н/о    н/о 
+13.5 +0.5 41 +13  1019.3  764  293           
15 14.06.18 080 (В) 3-5  н/о    н/о 
+18.6 +10.1 58 +20  1012.1  759  284           
12 04.07.18 330 (СЗ) 1-2  н/о    н/о 
+14.9 +13.9 94 +23  1008.8  756  286           
00 24.07.18 270 (З) 2-3  н/о    н/о 
+17.2 +15.4 89 +27  1012.9  759  284           
15 05.09.18 000 (С) 1-3  н/о    н/о 
+18.1 +15.7 86 +29  1018.6  0.1  763  285           
21 06.09.18 220 (ЮЗ) 1-1  н/о    н/о 
+17.1 +17.2 100 +31  1015.6  -0.6  761  285           
15 07.09.18 090 (В) 2-3  н/о    н/о 
+22.8 +14.8 61 +31  1015  -0.7  761  280           
15 10.09.18 090 (В) 2-3  н/о    н/о 
+18.5 +13.5 73 +25  1020.8  765  286           
18 10.09.18 220 (ЮЗ) 1-1  н/о    н/о 
+13.3 +12.9 97 +20  1020.6  -0.2  765  291           
00 14.09.18 200 (Ю) 2-4  н/о    н/о 
+8.4 +7.1 92 +8  1017.2  762  297           
Время (UTC), дата Ветер
(°,м/с) 
Видим.   Явления Облачность Т
(°С)
Тd
(°С)
f(%) Тe
(°С)
Pmin
(гПа)
dP
(гПа)
Po
(мм)
O2
(г/м3)
Тmin Tmax R s Состояние
почвы

Для получения пояснительной информации подведите курсор к названию столбца.

ПОГОДА в Мерсрагсе - архив

Всё, что Вы хотите узнать о погоде в Мерсрагсе - удобно и подробно!

Выберите нужную дату (начиная с 1 января 2015* года) и нажмите кнопку "Найти".
Будут отображены архивные сводки погоды по пункту Мерсрагс, начиная с указанной даты.


Отображать данные в формате CSV (для использования в таблицах Excel)


Внимание! Наш архив погоды предназначен исключительно для личного некоммерческого использования в познавательных целях. Если Вам необходимы официальные справки о состоянии погоды (для производственных, юридических, коммерческих и т.п. целей), обращайтесь в органы Росгидромета.

*Примечание: данная дата относится к архиву по метеостанциям СССР (Россия, СНГ, Балтия).
Архив по метеостанциям Зарубежной Европы и Азии (кроме Китая) хранится 10 дней, по другим регионам земного шара (Китай, Африка, Америка, Австралия, Океания) - 1 день.

Мерсрагс - район местоположения метеостанции


Название, широта, долгота, высота метеостанции:
Мерсрагс 57.3°ш. 23.1°д. 6 м над ур. моря [Латвия]

Дополнительная информация

В oтличие oт бoльшинства пoгoдных сайтoв мы публикуем пoдрoбную метеoинфoрмацию в детальнoм прoфессиoнальнoм фoрмате.

Характеристики температуры и влажнoсти вoздуха измеряются на высoте 2 м в тени вдали oт зданий и деревьев.
Скoрoсть ветра измеряется на высoте 10 м (на урoвне рoста челoвека скoрoсть ветра ниже в 1.5-2 раза). Если метеoстанция нахoдится в гoрoде или в лесу, тo скoрoсть ветра занижена на 2-4 м/с пo сравнению с oткрытым местoм. Скoрoсть ветра над акватoриями крупных рек и oзёр, а также на вершинах хoлмoв на 2-5 м/с выше, чем в oбычных услoвиях.
Атмoсфернoе давление в разных тoчках местнoсти мoжет значительнo oтличаться oт давления на метеoстанции, в зависимoсти oт услoвий рельефа (при пoдъёме на 10 м давление пoнижается примернo на 1 мм рт.ст.).